Find INTELSAT 702

NORAD ID: 23124 Int'l Des: 1994-034 Owner: INTEL Country: I-INT operational
HEOCIRCULAR

Live Position

Loading 3D Globe...

About INTELSAT 702

Description loading...

Upcoming Passes

Passes for default location (London). Set your location on the main map for personalized predictions.

Altitude History

Loading altitude history...

Two-Line Element Set

1 23124U 94034A 26105.68586308 -.00000255 00000-0 00000-0 0 9993
2 23124 10.9263 45.3498 0011648 21.2510 183.6489 0.98942430130269
Epoch: Apr 15, 2026 • Age: 25 hours

Current Status

Altitude 36212.3 km
Velocity 3.06 km/s
Sub-Earth Point -6.11°S, 154.02°E
Launch Date Jun 17, 1994
Age 31.8 years
Type communications

Technical Details

Classification Payload
Mass 3695.00 kg
Dry Mass 1500.00 kg
Total Mass 3695.00 kg
Length 4.20 m
Diameter 2.50 m
Span 21.80 m
Shape Box + 2 Pan
Manufacturer LOR
Bus Type FS-1300
Phase Status Renamed
Owner/State INTEL/I-INT

Most Searched